{"data":{"norad_id":49134,"epoch":"2026-05-25T03:47:56.887584Z","epoch_age_seconds":65303,"freshness":"FRESH","line1":"1 49134U 21082E   26145.15829731 -.00000032  00000+0  50987-5 0  9997","line2":"2 49134  69.9992 101.6549 0003700 258.8698 101.2045 14.98330031258638","mean_motion":14.98330031,"eccentricity":0.00037,"inclination_deg":69.9992,"raan_deg":101.6549,"arg_perigee_deg":258.8698,"mean_anomaly_deg":101.2045,"bstar":5.0987e-6,"rev_number":25863,"period_min":96.106997137268,"perigee_km":569.48422374529,"apogee_km":574.62736641365,"semimajor_km":6950.1927950795,"source":"CELESTRAK","updated_at":"2026-05-25T13:38:16.765152Z"}}